星链-2458 (STARLINK-2458 )

导读 | 豆包AI

STARLINK-2458是美国SpaceX公司星链(Starlink)卫星互联网项目的一员,于2021年4月7日发射入轨。星链计划旨在通过部署数千颗低轨卫星,为全球偏远、基础设施匮乏地区提供低延迟、高速的宽带互联网服务,这颗卫星是构建全球覆盖卫星星座的重要组成部分,助力实现星链网络的全球互联目标,目前星链已在全球六十多个国家落地服务。

Basic Information
目录编号:
48118
目录名称:
STARLINK-2458
国际标识:
2021-027AC
轨道中心:
EARTH
卫星名称:
星链-2458
卫星全名:
星链-2458 (STARLINK-2458 )
卫星状态:
已陨落 最后检测时间 2024-10-23
发射日期:
2021-04-07 UTC
国别 :
美国 (US)
星等 :
--
Orbit Information
数据来源 国际轨道数据
星历时间: 2024-10-23T13:52:25+0800
轨道信息已过期507天
半长轴: 6561.732km
偏心率: 0.0003983
轨道倾角: 53.034°
近地点辐角 216.729°
升交点赤经 227.243°
平近点角 255.602°
近地点: 180.983km
远地点: 186.211km
周期: 88.163分钟
每日圈数: 16.333342
Detailed Information
固有亮度:
5
最大亮度:
2.5
卫星平台:
Starlink V1.0
覆盖范围:
全球
运营商:
太空探索技术公司
运营商所在国:
美国
制造商(研发单位):
太空探索技术公司
制造商所在国:
美国
使用方式:
暂无
Satellite Introduction
星链(Starlink)计划是由太空探索技术公司(SpaceX)提出的一个巨型低轨卫星互联网星座项目,计划在2019年至2024年间在太空搭建由约1.2万颗卫星组成的“星链”网络,其中1584颗将部署在地球上空550千米处的近地轨道,并从2020年开始工作。该卫星仍在工作。